Regional Weather Roundup
Issued by NWS Sioux Falls, SD

Home | Current Version | Previous Version | Graphics & Text | Print | Product List | Glossary Off
Versions: 1 2 3 4 5 6 7 8 9 10 11 12 13 14 15 16 17 18 19 20 21 22 23 24 25 26 27 28 29 30 31 32 33 34 35 36 37 38 39 40 41 42 43 44 45 46 47 48 49 50

000
ASUS43 KFSD 262110
RWRFSD

WEATHER ROUNDUP FOR SE SOUTH DAKOTA/SW MINNESOTA/NW IOWA
NATIONAL WEATHER SERVICE SIOUX FALLS SD
400 PM CDT MON JUN 26 2017

NOTE: "FAIR" INDICATES FEW OR NO CLOUDS BELOW 12,000 FEET WITH NO
SIGNIFICANT WEATHER AND OR OBSTRUCTIONS TO VISIBILITY.


SDZ038>040-050-052>070-262200-
SOUTHEAST SOUTH DAKOTA

CITY           SKY/WX    TMP DP  RH WIND       PRES   REMARKS
BROOKINGS      SUNNY     67  39  35 N10G22    30.19F
CHAMBERLAIN    SUNNY     75  38  25 NE7       30.17F
HURON          SUNNY     71  38  29 VRB6      30.18F
MADISON        FAIR      66  41  39 E8        30.19F
MITCHELL       SUNNY     73  36  25 E7        30.18F
SIOUX FALLS    MOSUNNY   70  44  39 MISG      30.17F
WINNER         FAIR      77  38  24 VRB3      30.17F
YANKTON        SUNNY     71  42  35 N8        30.17F
$$

MNZ071-072-080-081-089-090-097-098-262200-
SOUTHWEST MINNESOTA

CITY           SKY/WX    TMP DP  RH WIND       PRES   REMARKS
FAIRMONT       MOSUNNY   68  41  37 N9        30.16
JACKSON        SUNNY     66  36  32 CALM      30.18S
LUVERNE        SUNNY     68  34  28 NE10      30.18F
MARSHALL       SUNNY     67  39  35 VRB3      30.18F
MONTEVIDEO     MOSUNNY   72  41  33 NE6       30.18S
PIPESTONE      SUNNY     70  37  30 NE9       30.18F
REDWOOD FALLS  MOSUNNY   71  39  31 VRB6      30.16F
TRACY          SUNNY     69  41  36 N9        30.18F
WINDOM         SUNNY     68  34  28 NE6G12    30.17F
WORTHINGTON    MOSUNNY   67  42  40 VRB6      30.18F
$$

IAZ001>003-012>014-020>022-031-032-NEZ013-014-SDZ071-262200-
NORTHWEST IOWA

CITY           SKY/WX    TMP DP  RH WIND       PRES   REMARKS
CHEROKEE       MOSUNNY   70  43  37 N7        30.16S
DENISON        SUNNY     70  45  40 N8        30.16S
ESTHERVILLE    SUNNY     68  42  38 N12G18    30.16F
LE MARS        SUNNY     72  41  33 N10       30.17F
ORANGE CITY    SUNNY     70  43  37 NE6       30.17F
SHELDON        SUNNY     70  41  35 N6G16     30.16S
SIOUX CITY     MOSUNNY   76  46  34 N5        30.15F
SPENCER        SUNNY     71  40  32 N7        30.16F
STORM LAKE     SUNNY     70  41  35 NE8G15    30.16F
$$

ABBREVIATIONS USED IN REMARKS
   TC - TEMPERATURE IN CELSIUS
  WCI - WIND CHILL INDEX
   HX - HEAT INDEX
  VSB - VISIBILITY





USA.gov is the U.S. government's official web portal to all federal, state and local government web resources and services.